Miscellaneous Local Product
Issued by NWS North Platte, NE

Home | Current Version | Previous Version | Text Only | Print | Product List | Glossary On
Versions: 1 2 3 4 5 6 7 8 9 10 11 12 13 14 15 16 17 18 19 20 21 22 23 24 25 26 27 28 29 30 31 32 33 34 35 36 37 38 39 40 41 42 43 44 45 46 47 48 49 50
000
AXUS43 KLBF 211210
MISLBF


WESTERN AND NORTH CENTRAL NEBRASKA HOURLY WEATHER ROUNDUP
NATIONAL WEATHER SERVICE NORTH PLATTE NE
600 AM CST SUN DEC 21 2014

***STATIONS NOT REPORTING VARIABLES SUCH AS SKY/WEATHER OR
PRESSURE ARE PROVIDED BY THE NEBRASKA DEPARTMENT OF
ROADS...RAWS...AND APRS NETWORKS...AND ARE NOT UNDER
NATIONAL WEATHER SERVICE QUALITY CONTROL***

...OBSERVATIONS IN AND NEAR THE EASTERN PANHANDLE OF NEBRASKA...

CITY           SKY/WX    TMP DP  RH WIND       PRES   REMARKS
PINE RIDGE     PTCLDY    28  22  78 W6        29.66F WCI  22
CHADRON        CLEAR     28  23  81 SW6       29.65F WCI  22
ALLIANCE       PTCLDY    24  20  84 S5        29.69F WCI  18
SIDNEY         CLEAR     20  16  84 W7        29.75F WCI  11
WHITECLAY        N/A     22  18  87 E7          N/A  WCI  13
CRESCENT LAKE    N/A     33  23  68 S7          N/A  WCI  27
LISCO            N/A     32  23  69 CALM        N/A
BIG SPRINGS      N/A     20  18  92 SW3         N/A
$$

...OBSERVATIONS IN NORTH CENTRAL NEBRASKA...

CITY           SKY/WX    TMP DP  RH WIND       PRES   REMARKS
VALENTINE      PTCLDY    25  22  88 SW3       29.70F
THEDFORD       MOCLDY    30  27  88 W3        29.76F
AINSWORTH      CLOUDY    32  26  78 SW9       29.72F WCI  24
O`NEILL        CLOUDY    27  26  99 S5        29.76F WCI  21
BROKEN BOW     CLOUDY    30  27  88 SE3       29.77F
BROWNLEE         N/A     27  23  86 SW6         N/A  WCI  20
SPRINGVIEW       N/A     22  20  92 CALM        N/A
BREWSTER         N/A     32  29  90 CALM        N/A
ROSE             N/A     32  30  93 SE6         N/A  WCI  26
SARGENT          N/A     21  20  96 CALM        N/A
COMSTOCK         N/A     34  32  93 S7          N/A  WCI  28
CHAMBERS         N/A     25  24  96 CALM        N/A
EWING            N/A     26  25  97 CALM        N/A
$$

...OBSERVATIONS IN SOUTHWEST NEBRASKA AND FAR NORTHEAST COLORADO...

CITY           SKY/WX    TMP DP  RH WIND       PRES   REMARKS
WRAY           FAIR      25  23  92 SW7       29.80F WCI  17
HOLYOKE        FAIR      28  23  80 CALM      29.77F
IMPERIAL       PTCLDY    28  24  85 W7        29.79F WCI  21
OGALLALA       CLEAR     20  19  95 SW5       29.77F WCI  14
NORTH PLATTE   MOCLDY    25  23  92 CALM      29.79F FOG
MCCOOK         CLOUDY    29  26  89 CALM      29.79F
LEXINGTON      CLOUDY    32  30  92 N3        29.79F
PAXTON           N/A     27  25  90 CALM        N/A
BRADY            N/A     27  24  89 CALM        N/A
GOTHENBURG       N/A     29  26  86 CALM        N/A
CALLAWAY         N/A     34  30  85 SW5         N/A  WCI  30
$$

...NORTH PLATTE AREA...

CITY           SKY/WX    TMP DP  RH WIND       PRES   REMARKS
AIRPORT        MOCLDY    25  23  92 CALM      29.79F FOG
DOWNTOWN         N/A     26  24  90 CALM        N/A
$$

...SOME WEATHER OBSERVATIONS FROM AROUND THE REGION...

CITY           SKY/WX    TMP DP  RH WIND       PRES   REMARKS
DENVER         PTCLDY    27  20  75 S13       29.76F WCI  16
LARAMIE        CLOUDY    30  21  69 S14       29.76F WCI  19
CHEYENNE       CLOUDY    38  19  46 SW17G25   29.74F WCI  28
SCOTTSBLUFF    CLEAR     21  17  84 E6        29.71F WCI  13
RAPID CITY     CLEAR     24  20  84 W5        29.59F WCI  18
PIERRE         PTCLDY    23  21  92 SE8       29.67F WCI  14
WINNER         FAIR      36  26  67 SE7       29.69F WCI  30
SIOUX FALLS    FOG       32  32 100 S10       29.81S VSB 1   WCI  24
OMAHA          CLOUDY    37  35  92 S12       29.93F FOG     WCI  29
GRAND ISLAND   PTCLDY    32  31  96 S8        29.84F WCI  25
KANSAS CITY    CLOUDY    38  34  85 S14       30.05S WCI  30
WICHITA        CLOUDY    41  36  82 S14       30.00S
HAYS           CLOUDY    34  27  75 S13       29.90F VSB 1/2 WCI  25
LIBERAL        CLOUDY    37  34  87 S7        29.87F WCI  32
GOODLAND       PTCLDY    30  26  85 S6        29.80F WCI  24
$$



USA.gov is the U.S. government's official web portal to all federal, state and local government web resources and services.